Find Starlink 31809

NORAD ID: 59743 Int'l Des: 2024-090 Owner: SPXS Country: US Constellation: starlink operational
LEOCIRCULAR

現在のビュー

3D地球を読み込み中...

About Starlink 31809

Starlink 31809 (NORAD 59743) is a starlink constellation satellite (v2 mini) launched May 13, 2024 by SPXS of US. It operates in LEO, CIRCULAR orbit with a mass of 730.00 kg.

次回通過

Passes for default location (London). Set your location on the main map for personalized predictions.

高度履歴

Loading altitude history...

軌道要素

1 59743U 24090P 26262.12002591 .00005947 00000-0 22574-3 0 9999
2 59743 43.0037 164.1074 0001014 243.3285 116.7463 15.27540133133100
Epoch: Sep 19, 2026 • Age: 47 hours

現在のステータス

高度 486.8 km
遠地点 / 近地点 N/A
速度 7.63 km/s
衛星直下点 42.44°N, 164.52°W
打ち上げ日 May 13, 2024
運用期間 2.3 years
タイプ internet

技術仕様

分類 Payload
質量 730.00 kg
乾燥質量 700.00 kg
長さ 0.30 m
スパン 29.00 m
形状 ? Box + pan
製造者 SPXS
バスタイプ Starlink V2M
フェーズステータス In Orbit
所有者/国 SPXS/US

Most Searched